FW8427 Weather Reports


time (UTC)temp
C
wind
direction
speed
KPH
gust
KPH
rain 1hr
cm
rain 24hr
cm
rain mn
cm
humidity
%
barometer
mb
20260906125935 25 355 4.8 4.8 0.00 0.00 0.00 94 1012.6
20260906125432 25 3 4.8 4.8 0.00 0.00 0.00 95 1012.6
20260906124931 25 18 4.8 8.0 0.00 0.00 0.00 95 1012.4
20260906124428 25 352 3.2 8.0 0.00 0.00 0.00 97 1012.5
20260906123927 25 349 3.2 6.4 0.00 0.00 0.00 97 1012.5
20260906123427 25 28 4.8 6.4 0.00 0.00 0.00 98 1012.4
20260906122922 25 10 3.2 4.8 0.00 0.00 0.00 99 1012.5
20260906122422 25 25 4.8 4.8 0.00 0.00 0.00 99 1012.3
20260906121919 24 9 3.2 4.8 0.00 0.00 0.00 99 1012.2
20260906121414 24 1 4.8 4.8 0.00 0.00 0.00 99 1012.4
20260906120911 24 4 4.8 4.8 0.00 0.00 0.00 99 1012.1
20260906120406 24 342 3.2 4.8 0.00 0.00 0.00 99 1012.0
20260906115902 24 347 3.2 4.8 0.00 0.00 0.00 99 1012.0
20260906115357 24 344 3.2 4.8 0.00 0.00 0.00 99 1012.3
20260906114856 24 355 1.6 3.2 0.00 0.00 0.00 99 1011.8
20260906114352 23 21 3.2 4.8 0.00 0.00 0.00 99 1011.9
20260906113847 23 5 3.2 4.8 0.00 0.00 0.00 99 1011.9
20260906113346 23 23 1.6 4.8 0.00 0.00 0.00 99 1011.7
20260906112841 23 19 3.2 3.2 0.00 0.00 0.00 98 1012.0
20260906112337 23 3 1.6 3.2 0.00 0.00 0.00 98 1011.9
20260906111832 23 331 3.2 3.2 0.00 0.00 0.00 98 1011.9
20260906111331 23 15 1.6 4.8 0.00 0.00 0.00 98 1011.7
20260906110827 24 11 3.2 3.2 0.00 0.00 0.00 98 1011.7
20260906110323 24 14 3.2 4.8 0.00 0.00 0.00 98 1011.9
20260906105821 24 16 3.2 3.2 0.00 0.00 0.00 98 1011.7
20260906105317 24 348 3.2 4.8 0.00 0.00 0.00 98 1011.7
20260906104812 24 5 3.2 3.2 0.00 0.00 0.00 98 1011.7
20260906104311 24 355 3.2 4.8 0.00 0.00 0.00 98 1011.8
20260906103804 24 14 3.2 4.8 0.00 0.00 0.00 98 1011.7
20260906103303 24 359 3.2 4.8 0.00 0.00 0.00 98 1011.9
20260906102759 24 352 3.2 4.8 0.00 0.00 0.00 98 1011.6
20260906102258 24 339 3.2 4.8 0.00 0.00 0.00 98 1011.4
20260906101753 24 357 3.2 4.8 0.00 0.00 0.00 98 1011.5
20260906101248 24 4 3.2 4.8 0.00 0.00 0.00 98 1011.5
20260906100743 24 344 1.6 3.2 0.00 0.00 0.00 98 1011.3
20260906100243 24 6 1.6 3.2 0.00 0.00 0.00 98 1011.0
20260906095738 24 3 1.6 4.8 0.00 0.00 0.00 98 1011.1
20260906095233 24 351 3.2 4.8 0.00 0.00 0.00 98 1011.2
20260906094732 24 352 3.2 4.8 0.00 0.00 0.00 98 1011.3
20260906094228 24 359 3.2 4.8 0.00 0.00 0.00 98 1011.1
20260906093724 24 344 3.2 4.8 0.00 0.00 0.00 98 1011.2
20260906093214 24 12 1.6 3.2 0.00 0.00 0.00 98 1011.1
20260906092709 24 0 3.2 4.8 0.00 0.00 0.00 98 1010.9
20260906092209 24 357 3.2 4.8 0.00 0.00 0.00 98 1010.8
20260906091705 24 342 1.6 4.8 0.00 0.00 0.00 98 1010.9
20260906091201 24 3 3.2 3.2 0.00 0.00 0.00 98 1010.9
20260906090657 24 352 1.6 4.8 0.00 0.00 0.00 98 1010.9
20260906090156 24 0 3.2 3.2 0.00 0.00 0.00 98 1010.8
20260906085655 24 2 1.6 3.2 0.00 0.00 0.00 98 1011.0
20260906085154 24 10 3.2 4.8 0.00 0.00 0.00 98 1010.9
20260906084649 24 358 3.2 4.8 0.00 0.00 0.00 98 1010.8
20260906084149 24 17 3.2 4.8 0.00 0.00 0.00 98 1010.9
20260906083643 24 348 3.2 4.8 0.00 0.00 0.00 98 1011.0
20260906083139 24 357 3.2 4.8 0.00 0.00 0.00 98 1010.9
20260906082634 24 330 3.2 4.8 0.00 0.00 0.00 98 1010.7
20260906082130 24 355 3.2 4.8 0.00 0.00 0.00 98 1010.9
20260906081626 24 345 3.2 3.2 0.00 0.00 0.00 98 1010.8
20260906081120 24 10 3.2 4.8 0.00 0.00 0.00 97 1010.9
20260906080617 24 0 3.2 4.8 0.00 0.00 0.00 98 1010.5
20260906080113 24 359 1.6 3.2 0.00 0.00 0.00 97 1010.5
20260906075612 24 3 3.2 3.2 0.00 0.00 0.00 97 1010.6
20260906075107 24 346 1.6 4.8 0.00 0.00 0.00 97 1011.0
20260906074602 25 0 3.2 4.8 0.00 0.00 0.00 97 1011.0
20260906074101 24 348 1.6 3.2 0.00 0.00 0.00 97 1010.7
20260906073557 24 339 3.2 3.2 0.00 0.00 0.00 97 1010.8
20260906073052 25 352 1.6 3.2 0.00 0.00 0.00 97 1011.0
20260906072546 25 353 1.6 3.2 0.00 0.00 0.00 97 1010.8
20260906072043 25 3 1.6 3.2 0.00 0.00 0.00 97 1010.9
20260906071539 25 352 1.6 3.2 0.00 0.00 0.00 97 1010.8
20260906071034 25 347 1.6 3.2 0.00 0.00 0.00 97 1010.9
20260906070530 25 1 1.6 3.2 0.00 0.00 0.00 97 1011.0
20260906070026 25 352 3.2 3.2 0.00 0.00 0.00 97 1011.1
20260906065525 25 356 1.6 3.2 0.00 0.00 0.00 97 1011.2
20260906065021 25 12 1.6 4.8 0.00 0.00 0.00 97 1011.2
20260906064516 25 11 3.2 4.8 0.00 0.00 0.00 97 1011.4
20260906064011 25 358 1.6 4.8 0.00 0.00 0.00 97 1011.3
20260906063507 25 332 3.2 3.2 0.00 0.00 0.00 97 1011.4
20260906063002 25 5 3.2 4.8 0.00 0.00 0.00 97 1011.4
20260906062456 25 1 1.6 4.8 0.00 0.00 0.00 97 1011.5
20260906061952 25 348 3.2 3.2 0.00 0.00 0.00 97 1011.5
20260906061447 25 4 3.2 3.2 0.00 0.00 0.00 97 1011.7
20260906060941 25 338 3.2 4.8 0.00 0.00 0.00 97 1011.9
20260906060438 25 347 1.6 4.8 0.00 0.00 0.00 97 1012.0
20260906055935 25 11 1.6 4.8 0.00 0.00 0.00 97 1011.9
20260906055431 25 29 3.2 3.2 0.00 0.00 0.00 97 1012.0
20260906054926 25 33 3.2 4.8 0.00 0.00 0.00 97 1012.0
20260906054420 25 4 3.2 4.8 0.00 0.00 0.00 97 1012.0
20260906053916 25 12 3.2 4.8 0.00 0.00 0.00 97 1012.4
20260906053412 25 0 4.8 4.8 0.00 0.00 0.00 97 1012.1
20260906052908 25 6 4.8 4.8 0.00 0.00 0.00 96 1012.0
20260906052404 25 6 3.2 4.8 0.00 0.00 0.00 96 1011.9
20260906051901 25 0 3.2 4.8 0.00 0.00 0.00 96 1012.0
20260906051400 25 12 3.2 4.8 0.00 0.00 0.00 96 1011.8
20260906050856 25 8 3.2 3.2 0.00 0.00 0.00 96 1011.4
20260906050351 25 0 3.2 4.8 0.00 0.00 0.00 96 1011.6
20260906045849 25 17 4.8 4.8 0.00 0.00 0.00 96 1011.6
20260906045338 25 0 3.2 4.8 0.00 0.00 0.00 96 1011.6
20260906044835 25 23 4.8 4.8 0.00 0.00 0.00 96 1011.6
20260906044334 25 38 1.6 3.2 0.00 0.00 0.00 96 1011.4
20260906043830 25 344 1.6 6.4 0.00 0.00 0.00 96 1011.6
20260906043326 25 347 3.2 4.8 0.00 0.00 0.00 96 1011.5
20260906042827 25 13 3.2 3.2 0.00 0.00 0.00 96 1011.6
20260906042325 26 4 3.2 4.8 0.00 0.00 0.00 96 1011.5
20260906041821 26 348 3.2 4.8 0.00 0.00 0.00 96 1011.2
20260906041317 26 358 3.2 3.2 0.00 0.00 0.00 96 1011.2
20260906040811 26 0 0.0 4.8 0.00 0.00 0.00 96 1011.1
20260906040307 26 346 3.2 4.8 0.00 0.00 0.00 96 1011.4
20260906035802 26 333 0.0 1.6 0.00 0.00 0.00 96 1011.4
20260906035257 26 326 0.0 1.6 0.00 0.00 0.00 96 1011.6
20260906034757 26 359 3.2 3.2 0.00 0.00 0.00 96 1011.5
20260906034252 26 357 3.2 3.2 0.00 0.00 0.00 96 1011.7
20260906033748 26 1 1.6 3.2 0.00 0.00 0.00 95 1011.7
20260906033247 26 3 3.2 3.2 0.00 0.00 0.00 95 1011.7
20260906032744 26 324 0.0 1.6 0.00 0.00 0.00 95 1011.9
20260906032244 26 3 3.2 3.2 0.00 0.00 0.00 95 1012.0
20260906031739 26 350 1.6 3.2 0.00 0.00 0.00 95 1012.1
20260906031235 26 322 3.2 3.2 0.00 0.00 0.00 95 1012.2
20260906030734 26 357 3.2 3.2 0.00 0.00 0.00 94 1012.4
20260906030230 26 350 3.2 3.2 0.00 0.00 0.00 95 1012.3
20260906025729 26 358 3.2 3.2 0.00 0.00 0.00 95 1012.3
20260906025224 26 348 3.2 3.2 0.00 0.00 0.00 95 1012.4
20260906024723 26 359 3.2 3.2 0.00 0.00 0.00 95 1012.2
20260906024222 26 11 3.2 4.8 0.00 0.00 0.00 95 1012.3
20260906023718 26 10 3.2 4.8 0.00 0.00 0.00 95 1012.3
20260906023213 26 345 3.2 3.2 0.00 0.00 0.00 95 1012.1
20260906022708 26 344 3.2 3.2 0.00 0.00 0.00 94 1012.0
20260906022203 26 354 1.6 4.8 0.00 0.00 0.00 94 1012.3
20260906021659 26 350 1.6 3.2 0.00 0.00 0.00 93 1012.1
20260906021158 26 342 1.6 3.2 0.00 0.00 0.00 93 1011.8
20260906020653 26 342 3.2 3.2 0.00 0.00 0.00 93 1012.2
20260906020148 26 5 3.2 3.2 0.00 0.00 0.00 93 1011.9
20260906015642 26 351 1.6 3.2 0.00 0.00 0.00 93 1012.0
20260906015140 26 3 3.2 3.2 0.00 0.00 0.00 92 1012.1
20260906014635 26 2 3.2 4.8 0.00 0.00 0.00 92 1011.9
20260906014131 26 5 3.2 3.2 0.00 0.00 0.00 92 1011.8
20260906013626 27 3 3.2 3.2 0.00 0.00 0.00 92 1011.6
20260906013122 27 9 3.2 3.2 0.00 0.00 0.00 91 1011.8
20260906012616 27 9 3.2 3.2 0.00 0.00 0.00 91 1011.8
20260906012116 27 354 3.2 4.8 0.00 0.00 0.00 90 1011.5
20260906011612 27 355 3.2 4.8 0.00 0.00 0.00 90 1011.4
20260906011107 27 359 4.8 4.8 0.00 0.00 0.00 90 1011.5
20260906010602 27 353 3.2 3.2 0.00 0.00 0.00 90 1011.3
20260906010058 27 359 3.2 3.2 0.00 0.00 0.00 90 1011.0
20260906005557 27 1 3.2 3.2 0.00 0.00 0.00 89 1010.9
20260906005057 27 0 3.2 3.2 0.00 0.00 0.00 89 1010.7
20260906004556 27 358 3.2 3.2 0.00 0.00 0.00 89 1011.0
20260906004051 27 350 3.2 3.2 0.00 0.00 0.00 89 1010.7
20260906003546 27 2 3.2 3.2 0.00 0.00 0.00 88 1010.5
20260906003043 27 2 1.6 3.2 0.00 0.00 0.00 88 1010.3
20260906002543 27 346 3.2 3.2 0.00 0.00 0.00 87 1010.6
20260906002037 27 354 3.2 3.2 0.00 0.00 0.00 87 1010.3
20260906001533 28 352 3.2 3.2 0.00 0.00 0.00 87 1010.3
20260906001027 28 358 3.2 3.2 0.00 0.00 0.00 86 1010.5
20260906000523 28 354 3.2 3.2 0.00 0.00 0.00 86 1010.5
20260906000018 28 0 3.2 3.2 0.00 0.00 0.00 84 1010.4
20260905235517 28 0 3.2 3.2 0.00 0.00 0.00 82 1010.7
20260905235013 28 346 3.2 3.2 0.00 0.00 0.00 81 1010.5
20260905234509 28 349 3.2 3.2 0.00 0.00 0.00 82 1010.6
20260905234009 28 0 3.2 3.2 0.00 0.00 0.00 83 1010.4
20260905233504 28 358 3.2 3.2 0.00 0.00 0.00 81 1010.5
20260905233004 29 345 3.2 3.2 0.00 0.00 0.00 80 1010.6
20260905232459 29 13 3.2 3.2 0.00 0.00 0.00 80 1010.6
20260905231954 29 7 3.2 4.8 0.00 0.00 0.00 79 1010.7
20260905231450 29 4 3.2 3.2 0.00 0.00 0.00 79 1010.8
20260905230947 30 1 3.2 3.2 0.00 0.00 0.00 79 1010.7
20260905230444 30 0 3.2 3.2 0.00 0.00 0.00 80 1010.9
20260905225943 30 357 3.2 3.2 0.00 0.00 0.00 79 1010.6
20260905225438 30 354 3.2 3.2 0.00 0.00 0.00 78 1010.8
20260905224933 30 0 3.2 3.2 0.00 0.00 0.00 78 1010.7
20260905224429 30 350 3.2 3.2 0.00 0.00 0.00 77 1010.8
20260905223922 30 352 3.2 3.2 0.00 0.00 0.00 75 1010.6
20260905223421 30 358 3.2 3.2 0.00 0.00 0.00 74 1010.9
20260905222921 30 350 3.2 3.2 0.00 0.00 0.00 73 1010.8
20260905222420 30 346 3.2 3.2 0.00 0.00 0.00 72 1010.8
20260905221916 30 347 1.6 3.2 0.00 0.00 0.00 73 1010.9
20260905221412 30 355 3.2 3.2 0.00 0.00 0.00 72 1010.8
20260905220908 31 352 1.6 3.2 0.00 0.00 0.00 72 1010.9
20260905220404 31 345 3.2 4.8 0.00 0.00 0.00 72 1011.0
20260905215903 31 350 3.2 3.2 0.00 0.00 0.00 69 1011.0
20260905215359 31 356 3.2 3.2 0.00 0.00 0.00 69 1010.9
20260905214855 31 319 4.8 6.4 0.00 0.00 0.00 67 1011.0
20260905214350 31 357 3.2 4.8 0.00 0.00 0.00 67 1011.0
20260905213844 31 304 3.2 3.2 0.00 0.00 0.00 67 1011.1
20260905213341 31 330 1.6 3.2 0.00 0.00 0.00 68 1010.9
20260905212836 31 346 3.2 3.2 0.00 0.00 0.00 67 1010.9
20260905212336 31 333 1.6 4.8 0.00 0.00 0.00 69 1010.8
20260905211830 31 1 3.2 4.8 0.00 0.00 0.00 69 1011.0
20260905211326 31 15 3.2 6.4 0.00 0.00 0.00 67 1010.8
20260905210822 31 342 3.2 4.8 0.00 0.00 0.00 68 1011.2
20260905210322 32 322 1.6 3.2 0.00 0.00 0.00 66 1011.1
20260905205821 32 7 3.2 4.8 0.00 0.00 0.00 69 1010.9
20260905205316 32 344 3.2 4.8 0.00 0.00 0.00 67 1010.9
20260905204815 31 0 3.2 4.8 0.00 0.00 0.00 67 1011.0
20260905204311 31 311 4.8 4.8 0.00 0.00 0.00 68 1011.0
20260905203810 31 338 3.2 3.2 0.00 0.00 0.00 68 1011.2
20260905203306 31 23 3.2 3.2 0.00 0.00 0.00 70 1011.1
20260905202801 31 356 3.2 4.8 0.00 0.00 0.00 70 1011.1
20260905202256 31 335 3.2 4.8 0.00 0.00 0.00 68 1011.2
20260905201751 32 327 3.2 3.2 0.00 0.00 0.00 68 1011.1
20260905201246 32 352 3.2 3.2 0.00 0.00 0.00 68 1011.3
20260905200741 32 349 4.8 4.8 0.00 0.00 0.00 67 1011.3
20260905200237 32 326 3.2 3.2 0.00 0.00 0.00 67 1011.6
20260905195735 32 317 1.6 3.2 0.00 0.00 0.00 67 1011.5
20260905195230 32 341 0.0 3.2 0.00 0.00 0.00 67 1011.7
20260905194726 31 336 3.2 3.2 0.00 0.00 0.00 68 1011.8
20260905194225 32 309 3.2 3.2 0.00 0.00 0.00 68 1011.8
20260905193719 32 333 3.2 4.8 0.00 0.00 0.00 65 1012.0
20260905193214 32 316 1.6 3.2 0.00 0.00 0.00 66 1011.9
20260905192710 31 314 3.2 3.2 0.00 0.00 0.00 69 1012.1
20260905192206 31 337 4.8 6.4 0.00 0.00 0.00 70 1012.1
20260905191705 31 343 1.6 4.8 0.00 0.00 0.00 68 1012.0
20260905191203 31 299 3.2 3.2 0.00 0.00 0.00 73 1012.2
20260905190702 31 339 1.6 4.8 0.00 0.00 0.00 69 1012.1
20260905190201 32 9 3.2 3.2 0.00 0.00 0.00 67 1012.1
20260905185700 32 317 1.6 4.8 0.00 0.00 0.00 69 1012.3
20260905185155 31 348 0.0 4.8 0.00 0.00 0.00 67 1012.3
20260905184655 31 7 3.2 3.2 0.00 0.00 0.00 73 1012.3
20260905184154 31 326 1.6 4.8 0.00 0.00 0.00 69 1012.3
20260905183648 31 348 3.2 3.2 0.00 0.00 0.00 69 1012.4
20260905183143 31 23 4.8 4.8 0.00 0.00 0.00 71 1012.3
20260905182642 31 264 0.0 3.2 0.00 0.00 0.00 68 1012.6
20260905182142 31 358 4.8 4.8 0.00 0.00 0.00 71 1012.5
20260905181638 31 14 3.2 4.8 0.00 0.00 0.00 73 1012.8
20260905181137 31 339 3.2 4.8 0.00 0.00 0.00 73 1013.0
20260905180632 31 292 4.8 4.8 0.00 0.00 0.00 76 1013.0
20260905180127 30 340 0.0 3.2 0.00 0.00 0.00 72 1013.2
20260905175626 30 307 3.2 3.2 0.00 0.00 0.00 73 1013.2
20260905175122 30 180 0.0 8.0 0.00 0.00 0.00 74 1013.3
20260905174617 30 355 4.8 4.8 0.00 0.00 0.00 74 1013.3
20260905174113 30 320 4.8 4.8 0.00 0.00 0.00 76 1013.7
20260905173609 30 3 3.2 4.8 0.00 0.00 0.00 77 1013.5
20260905173104 30 341 4.8 4.8 0.00 0.00 0.00 73 1013.7
20260905172603 30 302 1.6 3.2 0.00 0.00 0.00 73 1013.6
20260905172058 30 349 0.0 3.2 0.00 0.00 0.00 74 1013.7
20260905171554 30 318 4.8 4.8 0.00 0.00 0.00 76 1013.9
20260905171050 30 355 1.6 4.8 0.00 0.00 0.00 76 1013.7
20260905170547 30 318 4.8 4.8 0.00 0.00 0.00 76 1013.9
20260905170041 29 348 3.2 3.2 0.00 0.00 0.00 79 1013.9
20260905165536 29 353 1.6 3.2 0.00 0.00 0.00 80 1014.0
20260905165032 29 346 3.2 4.8 0.00 0.00 0.00 78 1014.0
20260905164526 30 13 0.0 3.2 0.00 0.00 0.00 73 1014.2
20260905164020 30 237 3.2 4.8 0.00 0.00 0.00 74 1014.0
20260905163511 30 238 0.0 4.8 0.00 0.00 0.00 76 1014.1
20260905163006 30 358 3.2 4.8 0.00 0.00 0.00 79 1014.3
20260905162502 30 8 3.2 4.8 0.00 0.00 0.00 78 1014.2
20260905161957 30 305 1.6 3.2 0.00 0.00 0.00 79 1014.3
20260905161456 29 20 4.8 4.8 0.00 0.00 0.00 78 1014.3
20260905160954 28 23 1.6 3.2 0.00 0.00 0.00 80 1014.4
20260905160448 28 349 4.8 4.8 0.00 0.00 0.00 83 1014.4
20260905155948 28 342 3.2 4.8 0.00 0.00 0.00 82 1014.6
20260905155443 28 333 3.2 3.2 0.00 0.00 0.00 81 1014.8
20260905154941 28 348 4.8 6.4 0.00 0.00 0.00 82 1014.6
20260905154437 28 335 3.2 4.8 0.00 0.00 0.00 81 1014.7
20260905153932 27 335 4.8 6.4 0.00 0.00 0.00 83 1014.8
20260905153428 27 357 4.8 4.8 0.00 0.00 0.00 83 1014.6
20260905152928 27 347 1.6 3.2 0.00 0.00 0.00 87 1014.8
20260905152427 27 318 0.0 6.4 0.00 0.00 0.00 86 1014.7
20260905151922 27 315 6.4 6.4 0.00 0.00 0.00 88 1015.0
20260905151418 27 331 3.2 4.8 0.00 0.00 0.00 86 1014.8
20260905150918 26 332 4.8 4.8 0.00 0.00 0.00 86 1015.1
20260905150413 26 17 3.2 3.2 0.00 0.00 0.00 88 1015.0
20260905145909 26 348 3.2 4.8 0.00 0.00 0.00 90 1015.3
20260905145404 26 0 4.8 6.4 0.00 0.00 0.00 89 1015.0
20260905144903 26 3 4.8 4.8 0.00 0.00 0.00 91 1015.0
20260905144359 26 353 4.8 4.8 0.00 0.00 0.00 91 1015.1
20260905143857 26 9 4.8 6.4 0.00 0.00 0.00 92 1015.0
20260905143352 26 5 4.8 4.8 0.00 0.00 0.00 91 1014.9
20260905142851 26 341 3.2 4.8 0.00 0.00 0.00 92 1015.0
20260905142350 25 4 3.2 4.8 0.00 0.00 0.00 94 1014.9
20260905141847 25 0 1.6 4.8 0.00 0.00 0.00 94 1015.0
20260905141342 25 16 3.2 4.8 0.00 0.00 0.00 95 1014.7
20260905140838 25 6 4.8 6.4 0.00 0.00 0.00 95 1015.0
20260905140337 25 22 4.8 8.0 0.00 0.00 0.00 95 1015.0
20260905135836 25 8 3.2 4.8 0.00 0.00 0.00 96 1014.9
20260905135332 25 19 4.8 4.8 0.00 0.00 0.00 96 1014.9
20260905134827 25 13 3.2 4.8 0.00 0.00 0.00 97 1015.0
20260905134320 25 351 3.2 4.8 0.00 0.00 0.00 98 1014.9
20260905133814 25 349 3.2 4.8 0.00 0.00 0.00 98 1014.7
20260905133310 24 10 4.8 8.0 0.00 0.00 0.00 99 1014.8
20260905132809 24 346 3.2 4.8 0.00 0.00 0.00 99 1014.7
20260905132306 24 3 3.2 4.8 0.00 0.00 0.00 99 1014.9
20260905131759 24 11 4.8 6.4 0.00 0.00 0.00 99 1014.6
20260905131255 24 358 3.2 6.4 0.00 0.00 0.00 99 1014.8
20260905130749 24 13 3.2 4.8 0.00 0.00 0.00 99 1014.9
20260905130249 24 24 1.6 4.8 0.00 0.00 0.00 99 1014.7